COSMOS 2559 (707K)

Last updated on Fri Jul 10 2026 00:03:26 GMT+0000 (Coordinated Universal Time)

1 54031U 22130A 26189.98384888 -.00000057 00000+0 00000+0 0 9994 2 54031 64.2570 313.8003 0012993 180.3657 179.6426 2.13101645 29156
UTC large
Height (km)
Speed (km/s)
/
Latitude / Longitude
Inclination (degrees)
Orbital Period (minutes)
Azimuth
Elevation
Range (km)
Doppler Factor

Next 0 passes for location: London (51.5072 / 0.1276)

No passes found over London.
COSMOS 2559 (707K)